Zurück zum Katalog

THOR ABLESTAR DEB

AktivLEO
NORAD 404·DEBRIS·🇺🇸 United States

Gestartet Jun 29, 1961 von Cape Canaveral Space Force Station

Loading…

Nächste Überflüge (nächste 24 Stunden)

TLE

AktuellSource: Space-Track

Epoche: Sep 9, 2026, 02:02 UTC

1 00404U 61015ED  26252.08536800  .00000062  00000-0  22800-3 0  9991
2 00404  66.4685 287.6970 0549785 127.2167 238.0350 12.92579680 54085

Verfolge THOR ABLESTAR DEB in Echtzeit mit AllMySat

Download on the App Store